Miscellaneous Local Product
Issued by NWS North Platte, NE

Home | Current Version | Previous Version | Graphics & Text | Print | Product List | Glossary On
Versions: 1 2 3 4 5 6 7 8 9 10 11 12 13 14 15 16 17 18 19 20 21 22 23 24 25 26 27 28 29 30 31 32 33 34 35 36 37 38 39 40 41 42 43 44 45 46 47 48 49 50
000
AXUS43 KLBF 311910
MISLBF


WESTERN AND NORTH CENTRAL NEBRASKA HOURLY WEATHER ROUNDUP
NATIONAL WEATHER SERVICE NORTH PLATTE NE
200 PM CDT FRI JUL 31 2015

***STATIONS NOT REPORTING VARIABLES SUCH AS SKY/WEATHER OR
PRESSURE ARE PROVIDED BY THE NEBRASKA DEPARTMENT OF
ROADS...RAWS...AND APRS NETWORKS...AND ARE NOT UNDER
NATIONAL WEATHER SERVICE QUALITY CONTROL***

...OBSERVATIONS IN AND NEAR THE EASTERN PANHANDLE OF NEBRASKA...

CITY           SKY/WX    TMP DP  RH WIND       PRES   REMARKS
PINE RIDGE     SUNNY     90  49  24 NE8       30.20F
CHADRON        SUNNY     92  52  25 N8        30.18F
ALLIANCE       SUNNY     89  55  31 S10       30.22F
SIDNEY         SUNNY     88  54  31 SE9       30.26F
BIG SPRINGS      N/A     87  62  42 E9          N/A
$$

...OBSERVATIONS IN NORTH CENTRAL NEBRASKA...

CITY           SKY/WX    TMP DP  RH WIND       PRES   REMARKS
VALENTINE      SUNNY     93  49  22 MISG      30.16  HX  90
THEDFORD       SUNNY     91  57  31 CALM      30.19F HX  90
AINSWORTH      SUNNY     90  61  37 E7        30.16F HX  90
O`NEILL        SUNNY     88  66  47 E5        30.15S HX  90
ORD            SUNNY     91  65  41 W7        30.12F HX  93
BROKEN BOW     MOSUNNY   92  66  42 MISG      30.16F HX  94
SPRINGVIEW       N/A     91  62  38 CALM        N/A  HX  91
CHAMBERS         N/A     92  65  40 NE3         N/A  HX  94
EWING            N/A     88  69  53 CALM        N/A  HX  92
$$

...OBSERVATIONS IN SOUTHWEST NEBRASKA AND FAR NORTHEAST COLORADO...

CITY           SKY/WX    TMP DP  RH WIND       PRES   REMARKS
WRAY           FAIR      91  53  26 E5        30.23F
IMPERIAL       SUNNY     91  55  29 SE8       30.21F
OGALLALA       SUNNY     86  62  45 SE8       30.21F
NORTH PLATTE   SUNNY     90  64  42 N3        30.18F HX  91
MCCOOK         SUNNY     93  62  35 MISG      30.18F HX  93
LEXINGTON      SUNNY     90  64  41 S5        30.18S HX  91
PAXTON           N/A     89  62  40 S3          N/A
BRADY            N/A     89  67  48 CALM        N/A  HX  92
CALLAWAY         N/A     90  75  61 S3          N/A  HX 100
$$

...NORTH PLATTE AREA...

CITY           SKY/WX    TMP DP  RH WIND       PRES   REMARKS
AIRPORT        SUNNY     90  64  42 N3        30.18F HX  91
DOWNTOWN         N/A     91  62  37 CALM        N/A  HX  91
HILLCREST        N/A     88  63  42 W6          N/A
$$

...SOME WEATHER OBSERVATIONS FROM AROUND THE REGION...

CITY           SKY/WX    TMP DP  RH WIND       PRES   REMARKS
DENVER         MOSUNNY   89  43  20 SE16      30.30F
LARAMIE        SUNNY     79  34  19 NW5       30.40F
CHEYENNE       MOSUNNY   84  49  29 S18G25    30.35F
SCOTTSBLUFF    SUNNY     87  64  46 E9        30.22F
RAPID CITY     SUNNY     84  53  34 NE7       30.21F
PIERRE         SUNNY     87  51  28 VRB6      30.12F
WINNER         FAIR      90  56  31 VRB3      30.14F
SIOUX FALLS    MOSUNNY   83  58  42 E5        30.13F
OMAHA          MOSUNNY   91  73  55 NW8       30.09F HX  99
GRAND ISLAND   MOSUNNY   92  68  45 SW8       30.15F HX  96
KANSAS CITY    MOSUNNY   86  66  51 CALM      30.14S
WICHITA        PTSUNNY   89  68  49 S6        30.15F HX  93
HAYS           SUNNY     90  63  40 S7        30.17F HX  90
LIBERAL        CLOUDY    73  64  73 S7        30.25F
GOODLAND       SUNNY     86  63  45 S13       30.24F
$$



USA.gov is the U.S. government's official web portal to all federal, state and local government web resources and services.